Wetbulb
50.13 49.73 49.83 49.68 49.85 49.76 49.74 49.83 50.12 50.33 50.15 50.50 50.67 50.76 50.68 50.79 50.76 48.21 45.79 49.18 45.97 43.33 43.64 45.41 45.37 42.64 43.36 42.79 39.17 44.58 44.82 47.50 49.52 44.62 42.49 41.73 41.88 44.12 46.68 48.69 46.71 46.41 46.52 43.82 43.63 41.69 40.69 54.71 54.00 49.98 52.20 53.41 56.04 56.44
50.49 50.35 50.25 49.95 49.79 49.68 49.79 49.73 49.75 49.87 50.31 50.35 50.39 50.48 50.82 50.56 50.67 49.81 45.18 48.34 49.50 43.77 43.41 47.74 48.09 49.08 48.48 47.72 42.46 40.87 41.20 45.90 48.49 44.95 47.01 45.32 45.60 48.23 47.17 43.74 51.70 46.88 49.91 49.02 47.92 46.61 52.75 55.14 52.54 54.30 54.84 53.10 55.59 55.23
50.69 50.47 50.26 50.09 49.68 49.67 49.71 49.92 49.82 50.00 49.97 50.16 50.09 50.42 50.29 50.35 50.65 49.38 45.48 45.51 44.82 42.67 42.96 41.39 43.12 48.63 50.70 49.90 48.25 39.51 41.66 45.71 46.69 47.20 45.72 47.31 45.52 48.43 44.94 47.20 49.62 52.21 54.07 50.68 51.06 52.50 54.41 56.00 57.55 57.88 57.33 55.82 56.76 57.29
50.30 50.16 49.85 49.78 49.85 49.52 49.52 49.19 49.49 49.66 49.76 49.90 49.65 49.93 50.12 50.37 50.67 49.86 44.78 45.21 44.58 43.22 37.94 40.26 48.30 45.86 49.73 48.36 48.58 46.65 44.10 44.88 45.94 44.59 41.74 43.61 44.48 47.87 46.00 48.40 48.38 51.70 52.47 50.33 51.12 53.80 54.18 54.75 55.13 55.67 56.86 56.69 56.89 57.52
49.99 49.69 49.86 49.65 49.07 49.30 49.01 49.23 49.15 49.25 49.49 49.48 49.61 50.07 50.22 50.37 50.71 48.59 46.38 45.76 47.23 44.02 38.44 39.41 45.19 48.35 48.83 48.89 48.80 48.56 44.52 43.02 42.83 40.90 40.21 40.04 45.29 46.02 46.18 47.67 46.45 52.17 50.31 48.46 46.91 53.18 52.85 52.69 54.68 55.75 53.89 54.17 54.53 53.47
49.85 49.65 49.89 49.43 49.19 49.48 49.09 48.89 48.95 49.06 49.83 49.78 49.84 50.01 50.10 50.39 50.44 45.08 43.34 45.96 47.26 45.59 38.47 36.21 44.82 44.92 46.86 48.07 46.89 46.45 46.10 43.33 43.88 40.84 40.69 42.55 44.56 44.64 42.52 41.49 46.67 52.43 52.35 51.51 50.75 54.84 54.15 55.34 55.53 54.40 52.58 53.74 54.08 53.43
49.80 49.52 49.31 49.08 49.31 49.00 48.99 49.00 49.05 49.04 49.64 49.49 49.68 50.28 50.57 50.55 44.44 41.54 41.74 47.06 48.40 44.93 40.13 38.53 39.48 44.60 47.88 46.53 46.65 44.44 45.90 44.63 42.88 40.02 39.73 40.68 41.68 43.08 40.63 39.28 46.88 50.12 50.91 52.23 53.67 52.47 48.05 50.74 48.93 52.57 54.42 55.00 54.84 54.22
49.65 49.34 49.32 49.19 49.13 49.16 48.90 48.97 48.84 49.14 49.16 49.50 50.44 50.56 50.48 50.12 47.62 42.06 45.41 47.54 46.63 41.81 40.84 37.02 39.33 41.66 45.13 42.16 42.89 45.71 42.46 43.56 42.51 41.22 41.10 40.67 42.22 40.84 38.34 42.33 42.93 46.61 48.93 49.27 49.25 49.19 48.57 49.90 51.15 51.00 52.69 52.86 51.40 50.86
49.48 49.19 48.98 48.61 49.15 48.75 48.69 48.72 48.66 48.80 48.97 49.58 50.00 50.50 45.58 42.40 40.96 43.50 53.17 50.80 45.62 42.89 38.23 39.69 37.05 36.76 43.92 42.90 44.25 44.20 44.53 40.22 44.05 40.03 38.96 42.05 43.80 43.61 45.12 45.25 46.99 47.29 47.05 46.77 49.29 49.46 49.46 48.93 48.95 49.60 50.22 50.20 49.21 49.14
49.03 49.08 48.96 48.76 49.05 48.85 49.13 48.77 48.21 48.58 48.62 49.47 45.38 42.94 38.57 43.68 52.85 50.49 43.07 40.99 40.85 41.67 39.90 37.13 40.97 37.14 40.61 41.73 40.62 42.97 43.34 41.24 38.41 41.38 43.69 44.54 44.06 46.58 47.02 47.26 48.61 49.59 50.16 50.17 48.05 47.19 47.35 47.41 48.34 48.87 49.23 49.93 49.66 48.98
48.98 48.94 48.72 49.07 49.11 48.69 49.42 48.66 48.17 48.53 47.82 42.11 41.48 41.85 45.50 51.70 41.80 39.95 37.26 38.61 39.71 37.56 39.59 38.80 38.85 37.20 44.44 40.32 40.63 42.11 39.77 40.95 38.41 40.78 40.12 41.82 41.55 44.35 47.99 48.98 50.20 50.77 51.61 49.99 49.24 48.34 48.31 47.87 48.47 48.10 48.94 50.18 50.24 49.62
48.61 48.42 49.29 49.18 48.58 48.75 48.90 48.65 48.12 44.33 44.76 45.39 45.29 46.07 45.45 41.32 37.32 34.81 34.69 38.49 37.97 35.84 39.12 38.01 39.21 43.01 43.54 44.57 41.96 42.44 39.75 41.13 37.62 44.01 42.38 41.08 45.51 46.56 48.40 49.63 50.66 50.44 51.54 51.28 51.38 50.57 50.97 51.49 50.89 50.15 49.85 49.22 49.55 50.53
48.71 49.01 49.68 49.17 49.13 49.21 48.85 48.29 47.93 48.57 48.19 48.01 44.25 41.60 39.38 36.84 26.79 32.63 30.43 34.16 35.15 39.36 39.54 39.73 39.45 40.93 42.00 42.36 41.30 40.85 38.65 36.66 42.46 41.71 40.62 42.26 45.11 47.88 48.38 49.22 49.64 50.41 51.43 51.79 51.79 51.94 52.22 53.34 53.67 52.09 51.21 51.71 51.74 51.79
48.79 49.33 49.68 49.60 49.64 49.51 49.35 48.84 48.53 47.80 45.87 41.65 38.60 32.24 33.22 32.13 34.83 34.03 36.30 39.25 42.06 41.30 41.59 41.56 40.11 40.26 41.57 40.30 40.64 38.03 40.51 40.89 38.44 37.63 38.58 42.13 43.87 46.06 47.16 48.89 49.76 49.92 51.22 51.27 51.33 53.61 53.41 52.71 53.22 54.19 54.25 53.13 52.56 51.98
49.05 49.21 49.15 49.39 49.29 49.28 49.51 49.30 49.19 47.07 43.47 38.91 38.95 32.62 36.05 39.92 40.75 43.40 43.74 43.74 42.80 42.84 41.35 41.02 41.44 41.60 39.53 38.80 40.08 39.21 38.98 38.51 40.18 39.30 40.89 44.12 44.94 45.58 46.40 48.98 48.91 48.98 49.08 49.97 51.16 52.76 53.01 52.61 52.66 52.69 53.78 53.27 52.93 51.80
49.05 48.61 47.45 49.48 49.74 49.53 49.22 47.99 46.06 46.64 43.35 40.56 39.79 37.58 39.39 39.60 39.99 41.01 40.57 39.99 43.03 42.50 42.24 41.70 39.34 37.79 38.31 38.16 38.37 37.67 39.57 37.98 40.28 42.45 44.80 46.00 45.88 46.41 45.56 45.94 47.61 49.17 49.37 49.07 49.66 50.48 52.10 51.85 51.50 51.43 52.59 53.07 53.17 51.83
48.81 42.88 48.86 49.29 49.06 48.65 48.58 45.08 45.05 43.55 41.70 40.15 38.03 41.83 41.99 40.36 40.41 40.64 40.39 40.83 44.64 42.41 40.11 40.69 37.64 37.32 40.17 36.30 37.99 41.83 39.07 42.01 42.44 44.57 47.50 46.56 46.52 46.79 47.71 48.55 49.33 50.63 49.80 49.10 49.32 49.93 50.45 52.21 52.29 51.41 49.74 51.32 52.68 52.88
43.18 46.70 49.91 49.51 47.98 46.61 43.93 43.57 43.57 41.57 38.91 39.55 38.44 38.98 41.34 42.67 40.70 40.29 42.64 43.81 42.42 41.82 41.81 40.00 41.94 37.55 36.85 37.31 38.10 43.24 42.66 43.46 47.71 45.67 46.24 47.33 47.84 48.25 49.52 49.42 49.94 50.06 50.07 49.83 49.41 49.23 49.90 50.15 48.60 49.27 50.07 50.45 50.51 50.96
45.85 46.56 49.21 49.67 47.72 43.73 42.52 42.20 42.21 36.16 38.07 41.47 44.06 41.78 41.19 41.95 42.77 43.22 43.09 42.98 43.03 43.17 42.28 40.94 39.32 37.89 38.67 41.11 41.43 42.13 42.78 43.60 44.19 46.73 46.93 47.06 47.76 48.50 49.18 49.30 50.63 49.38 50.63 49.28 48.77 49.06 49.53 49.36 48.33 48.07 49.65 50.64 48.48 48.97
48.70 48.35 48.41 49.40 48.31 41.49 41.12 39.47 43.62 38.82 37.99 39.45 40.70 41.46 40.11 39.25 41.28 40.98 41.26 41.60 40.86 40.10 38.92 38.79 40.38 42.47 42.80 43.38 44.05 44.48 45.54 46.46 46.07 45.31 45.85 47.80 49.27 48.39 48.29 47.92 48.61 49.36 49.28 48.19 47.08 46.58 46.18 45.70 46.69 49.10 49.72 49.51 48.41 47.79
47.93 47.79 47.88 46.76 44.82 44.19 41.85 40.66 40.28 40.44 40.47 39.01 41.80 41.42 42.14 41.71 41.61 41.75 41.90 43.68 39.47 36.87 38.82 41.07 42.12 43.96 45.49 45.83 46.84 47.39 47.39 47.48 46.14 46.77 47.45 47.67 49.08 49.98 50.39 49.72 48.37 48.12 47.12 49.64 46.24 45.91 44.95 45.37 46.43 46.50 47.49 46.67 47.49 48.61
46.95 49.88 45.31 47.08 43.21 42.58 39.90 41.71 38.27 40.23 38.61 38.16 38.87 40.34 39.11 38.58 39.55 39.50 41.89 40.18 39.90 43.02 42.22 42.14 42.32 43.82 45.03 45.12 47.09 51.38 52.08 51.86 51.86 51.96 49.50 49.73 49.94 49.18 48.68 48.96 48.51 48.56 49.97 49.90 48.77 47.15 45.46 44.72 46.05 46.38 46.46 46.74 47.82 48.42
48.13 46.15 42.76 42.78 38.04 36.27 34.44 41.84 40.63 40.83 37.05 36.67 39.82 39.23 39.28 39.63 39.58 41.92 37.64 38.81 40.25 43.16 44.29 45.22 44.86 46.78 47.41 50.18 52.52 52.50 52.30 51.65 50.33 50.41 50.33 51.13 52.37 52.45 49.89 50.19 49.86 48.41 48.91 48.97 47.68 46.93 44.47 44.98 45.54 45.44 45.32 46.05 45.76 45.91
46.69 40.82 37.78 37.51 37.29 34.32 40.08 38.42 39.68 39.35 40.34 37.59 36.49 34.53 37.73 39.09 40.94 39.56 38.45 39.30 42.00 46.03 48.77 49.09 50.52 49.33 49.12 49.33 49.06 49.46 50.26 50.34 50.19 50.39 50.56 49.48 48.99 49.37 47.47 47.61 45.46 43.52 44.14 45.53 46.18 46.62 46.76 46.73 46.32 46.79 46.90 46.63 46.56 45.66
36.09 35.45 35.75 33.71 36.92 34.99 35.81 37.65 37.37 36.88 35.42 37.05 36.00 36.27 37.96 41.17 38.68 40.09 40.22 43.28 45.96 47.23 47.38 48.78 48.78 48.41 47.76 47.79 48.08 49.40 51.06 51.27 50.50 49.63 51.37 51.16 49.82 45.37 45.46 45.90 43.07 41.97 43.52 43.22 42.55 42.60 42.70 43.41 44.09 44.40 45.06 45.58 45.10 46.05
32.88 37.14 33.68 36.16 36.01 35.91 37.57 35.69 35.98 36.52 36.89 37.10 37.94 42.26 42.04 40.27 40.28 38.61 40.60 42.72 43.76 46.38 47.24 47.40 47.95 49.40 49.89 50.31 48.56 50.21 49.66 48.31 48.83 48.09 46.28 45.70 44.34 41.62 40.16 39.82 39.28 40.43 42.95 41.85 41.30 41.95 43.18 43.43 42.80 43.06 42.94 43.37 42.08 43.33
37.03 41.33 39.68 41.51 41.83 41.64 41.65 44.02 43.20 40.18 39.69 38.61 40.56 42.01 41.66 39.13 40.56 43.78 45.82 47.04 48.30 50.61 50.80 51.18 51.04 51.11 49.88 48.21 46.78 47.09 49.30 48.44 45.50 44.73 44.26 45.35 43.08 42.43 41.85 40.27 38.82 40.13 42.25 43.03 41.94 41.83 41.95 41.98 41.63 41.82 41.48 41.56 43.79 45.17
43.58 46.74 43.55 43.17 44.24 45.88 42.87 42.99 42.43 42.33 42.58 44.74 45.66 41.10 40.26 41.40 42.49 45.91 47.40 49.69 50.75 51.89 51.74 51.12 49.57 47.01 45.33 43.34 43.27 43.90 43.40 43.40 43.85 43.92 43.56 43.58 42.38 41.69 41.17 40.65 40.18 40.51 40.94 41.56 41.24 41.16 41.59 40.91 40.68 40.77 40.99 42.75 43.14 43.85
47.29 48.15 46.21 44.47 44.97 44.55 43.05 41.96 41.51 42.50 44.20 42.93 41.01 41.04 42.87 45.91 47.74 49.13 50.43 50.08 50.54 47.82 45.80 44.61 44.49 44.64 44.35 44.10 44.78 43.94 42.97 42.05 41.17 39.83 38.48 37.49 37.52 38.12 39.54 39.56 39.45 39.69 39.31 39.49 40.22 40.86 41.60 40.82 40.28 39.48 40.29 42.27 42.43 41.97
45.60 48.00 45.76 45.81 44.46 43.61 45.12 45.03 44.26 45.94 46.79 46.83 47.24 47.18 47.01 47.50 49.53 49.43 48.28 48.12 47.12 45.79 44.93 43.84 43.71 44.31 42.04 41.37 40.89 41.96 42.67 42.30 41.27 39.69 36.82 36.27 36.97 38.36 38.65 38.88 39.12 39.05 39.05 39.85 39.97 40.24 40.43 39.88 39.31 38.78 38.35 38.32 38.04 37.72
48.92 47.26 46.08 45.93 46.49 49.07 48.27 47.10 48.57 47.73 48.02 47.64 47.88 45.91 45.24 46.29 48.44 49.78 48.97 47.97 48.11 47.52 45.08 43.66 43.08 42.61 41.73 41.04 40.52 39.99 39.04 40.91 41.48 40.42 39.23 38.41 38.16 38.73 39.41 39.16 39.01 39.50 39.99 40.21 40.02 39.41 39.19 38.27 38.40 37.35 37.89 37.65 37.85 36.93
48.96 46.87 45.41 44.86 45.05 48.57 50.12 47.72 47.19 47.83 49.06 47.19 47.28 48.34 47.19 45.58 43.42 45.90 48.07 47.40 46.01 44.17 44.69 43.75 42.65 42.45 43.37 42.77 42.86 42.17 40.93 40.58 40.11 40.18 39.32 38.86 38.70 38.93 38.53 38.04 38.42 39.30 39.71 39.50 39.30 38.33 37.74 37.14 37.47 37.29 37.15 37.36 36.84 36.45
49.76 50.77 48.96 47.15 47.01 46.55 48.34 48.33 48.37 46.88 48.05 47.43 48.39 49.26 49.53 48.42 46.18 48.69 50.61 49.60 45.92 44.26 43.43 43.60 43.53 43.50 42.82 42.73 42.04 41.41 40.84 40.74 40.20 39.53 38.97 38.56 38.03 37.72 37.15 37.67 38.42 40.00 37.91 37.04 36.28 36.37 35.49 35.40 35.97 35.36 35.42 35.73 36.07 36.32
MSLP
1018.05 1017.61 1017.15 1016.95 1016.77 1016.54 1016.42 1016.28 1016.17 1016.03 1015.97 1015.85 1015.69 1015.53 1015.30 1015.28 1015.11 1015.06 1014.39 1013.73 1013.78 1012.64 1010.43 1008.75 1008.10 1007.32 1006.55 1005.65 1004.79 1003.67 1002.68 1002.30 1001.53 1001.62 1001.74 1000.68 1000.12 999.56 1000.38 1001.61 1001.66 1002.40 1002.87 1003.48 1003.18 1002.80 1003.12 1001.44 1000.06 1000.72 1002.30 1001.31 1000.56 1000.17
1016.70 1016.65 1016.42 1016.11 1016.02 1015.81 1015.70 1015.58 1015.47 1015.40 1015.39 1015.26 1015.13 1014.99 1014.85 1014.80 1014.75 1014.57 1014.35 1013.24 1012.95 1012.96 1010.02 1008.11 1007.28 1006.51 1006.53 1005.61 1005.49 1004.36 1004.28 1003.94 1003.89 1003.83 1002.70 1002.71 1001.41 1000.58 1000.96 1002.35 1002.35 1003.48 1003.60 1004.52 1005.90 1005.80 1004.87 1003.82 1003.36 1002.93 1002.72 1001.96 1002.37 1001.37
1015.70 1015.68 1015.49 1015.21 1015.19 1015.10 1014.98 1014.88 1014.75 1014.71 1014.78 1014.78 1014.72 1014.62 1014.50 1014.42 1014.32 1014.40 1014.00 1013.47 1012.84 1012.00 1009.55 1007.79 1005.82 1004.48 1004.54 1004.61 1004.58 1005.07 1004.66 1004.48 1005.19 1004.89 1004.64 1004.48 1002.63 1001.93 1002.73 1002.96 1003.10 1004.16 1004.92 1004.61 1005.49 1006.18 1005.48 1004.21 1003.58 1002.81 1002.67 1002.36 1002.85 1002.54
1014.80 1014.77 1014.64 1014.48 1014.37 1014.39 1014.37 1014.38 1014.33 1014.26 1014.33 1014.35 1014.39 1014.31 1014.16 1013.99 1013.84 1013.75 1013.87 1013.33 1013.44 1012.46 1010.96 1007.40 1004.88 1004.31 1003.51 1003.76 1003.71 1003.96 1004.32 1004.25 1004.33 1004.25 1004.10 1004.10 1003.44 1002.26 1002.54 1002.76 1002.77 1003.74 1003.81 1005.78 1005.98 1004.56 1005.58 1004.68 1003.15 1003.48 1002.75 1001.99 1002.75 1003.56
1013.98 1013.91 1013.81 1013.77 1013.93 1013.89 1013.86 1013.87 1013.91 1013.89 1013.95 1014.03 1014.02 1013.91 1013.73 1013.59 1013.39 1013.23 1013.03 1012.59 1012.52 1012.67 1011.15 1008.51 1006.12 1003.89 1003.48 1003.54 1003.56 1003.71 1004.09 1004.32 1004.85 1004.97 1004.72 1004.50 1003.64 1003.11 1003.39 1003.31 1004.08 1004.54 1004.56 1004.53 1005.41 1004.84 1005.70 1004.82 1004.23 1003.27 1002.64 1002.89 1003.62 1003.95
1013.18 1013.24 1013.21 1013.30 1013.36 1013.37 1013.39 1013.48 1013.58 1013.58 1013.56 1013.62 1013.60 1013.51 1013.37 1013.25 1013.15 1013.19 1012.14 1011.70 1011.78 1012.09 1011.67 1009.40 1005.64 1004.07 1003.70 1003.52 1003.54 1003.61 1003.86 1004.43 1005.01 1005.05 1004.93 1004.02 1003.38 1003.59 1004.90 1005.13 1004.56 1003.69 1003.47 1003.81 1004.86 1005.11 1005.02 1003.93 1004.31 1003.97 1003.45 1003.71 1003.25 1003.58
1012.58 1012.69 1012.77 1012.94 1012.93 1012.96 1013.02 1013.14 1013.26 1013.30 1013.28 1013.27 1013.20 1013.11 1013.06 1013.00 1013.21 1013.04 1012.11 1011.50 1011.29 1012.04 1011.56 1009.63 1006.76 1004.06 1003.51 1003.60 1003.61 1003.68 1003.81 1004.20 1004.59 1004.84 1004.63 1004.15 1003.82 1003.94 1005.22 1005.59 1004.96 1004.47 1004.08 1004.32 1004.60 1004.81 1004.92 1004.36 1004.59 1004.30 1004.18 1004.13 1003.63 1003.47
1012.10 1012.34 1012.53 1012.57 1012.62 1012.65 1012.72 1012.87 1012.99 1013.05 1013.07 1013.00 1012.88 1012.74 1012.63 1012.57 1012.49 1012.20 1010.36 1010.00 1010.98 1011.74 1011.35 1009.80 1006.82 1004.81 1003.44 1003.73 1003.70 1003.52 1003.91 1003.98 1004.03 1004.31 1004.32 1004.44 1004.39 1005.12 1006.75 1006.47 1005.73 1005.44 1005.03 1005.30 1005.57 1005.49 1005.28 1005.18 1005.09 1005.04 1004.60 1004.41 1004.21 1004.62
1011.86 1012.10 1012.31 1012.44 1012.44 1012.54 1012.64 1012.70 1012.78 1012.88 1012.83 1012.72 1012.60 1012.41 1012.36 1012.20 1011.79 1010.56 1009.72 1009.83 1010.25 1011.09 1010.54 1009.16 1007.43 1005.45 1003.70 1003.63 1003.50 1003.59 1003.64 1004.34 1003.87 1004.13 1004.51 1004.97 1007.25 1008.99 1009.68 1008.27 1007.14 1006.45 1006.10 1006.09 1005.66 1005.60 1005.64 1005.93 1005.91 1005.66 1005.40 1005.17 1005.44 1005.55
1011.90 1012.08 1012.22 1012.33 1012.33 1012.50 1012.57 1012.66 1012.77 1012.82 1012.77 1012.66 1012.66 1012.49 1011.93 1010.76 1009.97 1009.97 1010.05 1010.24 1010.32 1010.09 1009.89 1008.88 1007.05 1005.78 1004.58 1003.94 1003.86 1003.87 1003.77 1004.08 1004.23 1004.11 1004.50 1007.32 1009.48 1010.12 1009.62 1008.87 1008.19 1007.48 1006.84 1006.31 1006.32 1006.79 1006.78 1006.90 1007.03 1006.70 1006.58 1006.43 1005.98 1005.87
1011.92 1012.07 1012.20 1012.26 1012.33 1012.56 1012.67 1012.83 1012.94 1012.98 1012.92 1012.97 1012.74 1012.21 1011.16 1010.12 1010.17 1010.04 1010.02 1009.89 1009.44 1009.25 1008.33 1007.41 1006.51 1005.71 1004.57 1004.48 1004.36 1004.13 1004.17 1004.13 1004.21 1004.30 1004.92 1008.22 1010.05 1010.38 1009.89 1009.27 1008.73 1008.29 1007.79 1007.70 1007.83 1007.84 1007.75 1007.68 1007.45 1007.16 1006.86 1006.64 1006.38 1006.18
1012.06 1012.17 1012.26 1012.38 1012.58 1012.75 1012.92 1013.07 1013.22 1013.34 1013.26 1013.30 1013.00 1012.41 1011.61 1010.77 1010.67 1010.47 1009.73 1008.93 1008.39 1007.75 1006.82 1006.43 1005.59 1005.23 1004.84 1004.52 1004.63 1004.38 1004.44 1004.34 1004.54 1004.60 1006.34 1009.52 1010.87 1010.63 1010.17 1009.70 1009.26 1008.83 1008.52 1008.42 1008.26 1008.30 1008.18 1007.97 1007.75 1007.54 1007.20 1006.94 1006.69 1006.48
1012.47 1012.50 1012.60 1012.76 1012.82 1012.98 1013.18 1013.39 1013.43 1013.35 1013.04 1012.87 1012.90 1012.55 1011.99 1011.24 1010.85 1010.30 1009.26 1008.27 1007.49 1006.44 1006.10 1005.80 1005.58 1005.53 1005.06 1004.83 1004.93 1004.96 1005.05 1005.19 1004.91 1006.65 1009.18 1010.77 1011.11 1010.85 1010.54 1010.15 1009.71 1009.22 1009.02 1008.94 1008.76 1008.47 1008.21 1007.97 1007.68 1007.37 1007.09 1006.68 1006.40 1006.19
1012.94 1012.97 1013.06 1013.18 1013.15 1013.31 1013.51 1013.54 1013.53 1013.47 1013.43 1013.24 1012.89 1012.47 1012.07 1011.14 1010.27 1009.52 1008.80 1008.27 1007.19 1006.45 1006.21 1006.09 1006.17 1006.21 1005.97 1005.68 1005.71 1005.89 1005.74 1005.52 1006.69 1008.87 1010.29 1011.01 1011.10 1011.04 1010.78 1010.48 1010.05 1009.67 1009.38 1009.14 1008.94 1008.65 1008.35 1007.98 1007.54 1007.14 1006.69 1006.22 1006.00 1006.02
1013.62 1013.62 1013.65 1013.65 1013.66 1013.68 1013.70 1013.71 1013.57 1013.69 1013.63 1013.33 1012.83 1012.45 1011.66 1011.07 1009.89 1009.04 1008.43 1007.99 1007.04 1006.51 1006.48 1006.67 1006.81 1006.75 1006.78 1006.65 1006.58 1006.54 1006.60 1007.71 1008.97 1010.10 1010.74 1011.05 1011.10 1011.03 1010.94 1010.72 1010.49 1010.20 1009.86 1009.51 1009.18 1008.88 1008.47 1008.06 1007.75 1007.30 1006.91 1006.52 1006.24 1006.18
1014.15 1014.09 1014.36 1014.17 1014.10 1014.07 1014.14 1014.02 1013.76 1013.67 1013.50 1013.16 1012.53 1012.33 1011.96 1011.25 1010.35 1009.29 1008.84 1008.57 1007.59 1007.39 1007.18 1007.39 1007.71 1007.77 1007.72 1007.60 1007.58 1008.00 1008.22 1009.51 1010.48 1010.90 1010.90 1010.98 1011.09 1011.12 1011.00 1010.78 1010.47 1010.08 1009.80 1009.48 1009.16 1008.86 1008.39 1008.01 1007.76 1007.66 1007.09 1006.59 1006.34 1006.28
1014.52 1015.04 1014.93 1014.76 1014.63 1014.57 1014.48 1014.55 1014.12 1013.75 1013.37 1013.15 1012.93 1012.62 1012.29 1011.85 1011.22 1010.31 1009.55 1009.05 1008.28 1008.49 1009.02 1008.80 1008.91 1008.88 1008.43 1008.56 1009.23 1009.76 1010.35 1010.60 1010.74 1010.84 1010.84 1010.90 1010.90 1010.76 1010.53 1010.22 1009.81 1009.44 1009.20 1008.87 1008.60 1008.39 1008.24 1007.85 1007.83 1007.84 1007.74 1007.11 1006.69 1006.47
1015.47 1015.63 1015.31 1015.13 1014.97 1014.77 1014.55 1014.51 1014.31 1013.76 1013.34 1012.98 1013.12 1012.98 1012.52 1011.90 1011.27 1010.65 1010.01 1009.45 1009.33 1009.60 1009.74 1009.88 1009.77 1009.74 1010.03 1010.27 1011.04 1011.25 1011.26 1011.11 1010.81 1010.97 1010.92 1010.76 1010.64 1010.45 1010.23 1010.12 1009.66 1009.33 1009.00 1008.67 1008.49 1008.36 1008.14 1007.97 1008.05 1007.83 1007.45 1007.01 1006.82 1006.66
1015.92 1015.71 1015.47 1015.28 1015.22 1015.17 1014.94 1014.08 1013.92 1013.92 1013.48 1013.67 1013.10 1012.71 1012.38 1011.77 1011.00 1010.59 1010.33 1010.06 1009.85 1009.72 1009.94 1010.27 1010.77 1011.25 1011.60 1011.66 1011.72 1011.70 1011.51 1011.37 1011.28 1011.11 1010.95 1010.57 1010.37 1010.17 1009.82 1009.52 1009.25 1008.94 1008.67 1008.52 1008.18 1007.93 1007.63 1007.51 1007.46 1007.20 1007.00 1006.98 1006.78 1006.53
1016.12 1015.86 1015.54 1015.25 1015.08 1015.21 1015.02 1014.29 1013.53 1014.02 1014.06 1013.82 1013.25 1012.93 1012.53 1011.93 1011.26 1011.06 1010.84 1010.63 1010.47 1010.45 1010.90 1011.37 1011.79 1011.75 1011.74 1011.67 1011.49 1011.44 1011.30 1011.18 1011.14 1011.20 1010.95 1010.38 1009.92 1009.77 1009.71 1009.60 1009.27 1008.77 1008.40 1007.89 1007.57 1007.46 1007.23 1006.91 1006.44 1006.33 1006.51 1006.58 1006.65 1006.47
1016.18 1016.16 1015.72 1015.53 1015.36 1015.47 1015.55 1015.26 1014.87 1014.82 1014.55 1014.22 1013.74 1013.40 1012.99 1012.18 1012.11 1012.17 1012.09 1011.60 1011.39 1011.47 1011.77 1011.91 1011.97 1011.74 1011.47 1011.34 1011.17 1011.06 1011.05 1011.02 1011.08 1011.05 1010.89 1010.51 1009.94 1009.75 1009.44 1008.96 1008.70 1008.36 1008.17 1007.83 1007.69 1007.24 1006.91 1006.74 1006.41 1006.07 1006.04 1006.10 1005.97 1005.86
1016.85 1016.39 1016.33 1015.83 1015.93 1015.87 1015.89 1015.80 1015.90 1015.31 1015.08 1014.87 1014.47 1014.12 1013.97 1013.91 1013.81 1013.67 1013.42 1012.80 1012.58 1012.29 1011.93 1011.95 1011.68 1011.43 1011.26 1011.20 1011.08 1010.80 1010.60 1010.55 1010.56 1010.45 1010.06 1010.03 1009.89 1009.38 1008.88 1008.38 1008.30 1008.07 1007.76 1007.38 1006.95 1006.78 1006.52 1006.31 1005.92 1005.70 1005.61 1005.47 1005.30 1005.33
1017.04 1016.98 1016.93 1016.73 1016.73 1016.76 1016.68 1016.00 1015.78 1015.60 1015.48 1015.27 1014.73 1014.54 1014.62 1014.57 1014.58 1014.17 1013.92 1013.47 1012.94 1012.15 1011.83 1011.56 1011.19 1010.99 1011.01 1010.89 1010.56 1010.38 1010.26 1010.21 1010.10 1009.95 1009.67 1009.56 1009.22 1008.86 1008.57 1008.04 1007.96 1008.18 1007.83 1007.14 1006.39 1006.49 1006.44 1005.89 1005.79 1005.69 1005.44 1005.24 1005.11 1005.01
1017.24 1017.61 1017.53 1017.37 1017.28 1017.13 1016.74 1016.27 1015.99 1015.82 1015.62 1015.57 1015.56 1015.43 1015.16 1015.03 1014.83 1014.44 1014.00 1013.35 1012.68 1011.91 1011.44 1011.01 1010.60 1010.79 1010.84 1010.77 1010.60 1010.18 1009.79 1009.77 1009.62 1009.31 1008.93 1008.98 1009.03 1008.60 1008.42 1008.45 1008.29 1008.21 1007.89 1007.45 1007.15 1007.09 1006.89 1006.61 1006.17 1005.95 1005.69 1005.64 1005.41 1005.13
1017.89 1017.79 1017.79 1017.48 1017.31 1016.95 1016.32 1015.91 1015.70 1015.65 1015.49 1015.59 1015.45 1015.18 1014.91 1014.88 1014.48 1014.00 1013.49 1012.72 1012.19 1011.75 1011.42 1011.21 1011.03 1011.03 1011.00 1010.51 1010.11 1009.42 1008.77 1008.94 1008.95 1009.13 1008.53 1008.17 1008.46 1008.42 1008.53 1008.66 1008.60 1008.38 1008.14 1008.08 1007.94 1007.66 1007.32 1006.83 1006.55 1006.35 1006.08 1005.79 1005.56 1005.21
1016.82 1016.48 1016.56 1016.13 1016.23 1015.91 1015.52 1015.05 1015.00 1014.99 1014.93 1014.84 1014.74 1014.29 1014.44 1014.21 1013.66 1013.16 1012.68 1011.81 1011.59 1011.38 1011.20 1011.10 1011.04 1010.93 1010.46 1009.98 1009.92 1009.50 1008.59 1008.03 1008.41 1008.59 1008.81 1008.65 1008.89 1009.03 1009.27 1009.37 1009.35 1009.09 1008.66 1008.46 1008.29 1008.02 1007.64 1007.27 1006.96 1006.62 1006.24 1005.87 1005.51 1005.18
1015.11 1014.23 1014.56 1014.61 1014.37 1014.42 1014.26 1013.89 1013.70 1013.66 1013.38 1013.18 1013.15 1013.27 1013.23 1012.84 1012.76 1012.13 1011.42 1010.92 1010.88 1010.21 1009.87 1009.87 1009.90 1010.12 1010.03 1009.79 1009.52 1009.23 1008.95 1008.88 1008.96 1009.07 1008.96 1008.92 1008.90 1008.85 1009.11 1009.47 1009.63 1009.43 1008.81 1008.47 1008.16 1007.96 1007.76 1007.47 1007.14 1006.77 1006.39 1006.02 1005.93 1005.82
1012.93 1011.39 1011.24 1012.15 1012.18 1011.77 1010.91 1011.41 1011.45 1011.00 1010.56 1010.30 1011.03 1011.30 1011.35 1011.50 1011.72 1010.90 1010.13 1009.43 1009.55 1009.62 1009.63 1009.90 1009.90 1009.85 1009.96 1009.94 1009.81 1009.72 1009.65 1009.56 1009.42 1009.26 1009.12 1009.12 1009.14 1009.19 1009.23 1009.24 1009.12 1008.78 1008.54 1008.26 1008.13 1007.98 1007.71 1007.45 1007.14 1006.83 1006.60 1006.52 1006.55 1006.42
1010.93 1009.67 1009.32 1009.89 1009.91 1009.76 1009.73 1009.68 1009.75 1009.56 1009.20 1009.27 1010.13 1010.55 1010.63 1010.41 1010.30 1010.30 1009.62 1009.54 1009.33 1009.55 1009.89 1010.00 1010.10 1009.91 1009.92 1009.92 1009.95 1009.98 1009.94 1009.82 1009.90 1009.91 1009.84 1009.92 1009.98 1009.77 1009.35 1009.17 1009.02 1008.74 1008.49 1008.35 1007.90 1007.64 1007.44 1007.24 1006.89 1006.68 1006.60 1006.61 1006.69 1006.73
1010.06 1009.37 1009.59 1009.81 1010.17 1009.96 1009.16 1008.75 1009.10 1009.05 1009.23 1009.32 1009.59 1009.97 1010.20 1010.19 1009.85 1009.43 1009.49 1009.59 1009.82 1010.09 1010.30 1010.26 1010.30 1010.40 1010.67 1010.73 1010.80 1010.70 1010.41 1010.24 1010.11 1010.21 1010.12 1010.14 1010.15 1009.72 1009.48 1009.29 1009.12 1008.71 1008.40 1008.33 1008.15 1007.80 1007.31 1007.03 1006.78 1006.60 1006.57 1006.72 1006.78 1006.84
1009.76 1009.62 1009.65 1009.63 1010.19 1010.00 1008.98 1008.52 1008.53 1008.89 1009.35 1009.63 1009.96 1010.34 1010.58 1010.46 1010.24 1010.05 1010.05 1010.07 1010.19 1010.37 1010.67 1010.90 1011.07 1011.10 1011.21 1011.25 1011.15 1011.04 1010.99 1010.49 1010.35 1010.24 1010.06 1009.95 1009.72 1009.64 1009.48 1009.17 1008.80 1008.51 1008.36 1008.23 1008.05 1007.85 1007.77 1007.65 1007.54 1007.42 1007.25 1007.12 1006.95 1006.97
1009.77 1009.65 1009.77 1009.76 1009.43 1008.99 1009.28 1009.48 1009.46 1009.48 1010.05 1010.53 1010.65 1010.50 1010.78 1010.96 1011.45 1011.45 1010.83 1010.55 1011.00 1011.34 1011.55 1011.58 1011.76 1012.00 1011.79 1011.58 1011.34 1011.03 1010.76 1010.86 1010.58 1010.25 1010.00 1009.89 1009.76 1009.55 1009.36 1009.08 1008.77 1008.51 1008.41 1008.50 1008.43 1008.47 1008.55 1008.42 1008.33 1008.31 1008.13 1007.82 1007.54 1007.29
1010.32 1010.35 1009.88 1010.13 1009.86 1009.32 1008.83 1009.00 1009.78 1010.11 1010.52 1011.35 1012.01 1012.02 1011.81 1011.71 1011.56 1011.87 1011.57 1011.59 1011.97 1012.17 1012.21 1012.25 1012.29 1012.22 1012.02 1011.74 1011.49 1011.20 1011.06 1010.88 1010.66 1010.45 1010.27 1009.93 1009.71 1009.51 1009.54 1009.32 1009.00 1008.90 1009.02 1009.11 1009.02 1008.97 1008.88 1008.78 1008.77 1008.80 1008.65 1008.43 1008.22 1008.14
Wind_Speed
21 21 20 20 19 18 18 17 15 16 15 14 15 14 12 11 11 6 7 8 2 3 10 9 6 2 5 4 4 5 2 6 6 7 2 4 3 5 7 2 5 5 4 4 4 4 5 17 7 10 4 8 8 10
22 22 21 20 19 18 17 17 15 16 13 14 13 13 12 10 10 9 4 4 4 4 9 8 18 21 15 18 3 5 2 4 4 6 2 3 5 4 3 3 6 0 6 4 4 2 6 7 4 1 5 5 8 13
21 21 20 19 17 16 16 15 14 15 11 11 10 11 10 11 9 7 6 3 3 3 7 2 9 11 10 11 7 3 3 2 2 5 3 5 3 2 3 2 6 3 3 6 6 2 6 5 3 3 5 7 7 8
20 19 17 17 15 14 13 11 11 9 9 9 9 11 11 12 10 9 2 3 2 4 4 8 4 4 2 4 4 5 4 3 2 2 1 1 1 2 2 4 4 3 7 5 1 4 8 5 1 3 6 12 11 9
18 17 17 13 13 13 12 11 10 9 8 9 10 11 11 12 9 7 6 5 7 3 4 7 13 9 7 4 3 2 4 2 1 3 2 2 2 4 4 4 2 4 7 6 6 3 5 5 7 1 12 9 4 5
15 14 12 13 12 13 11 10 10 9 8 9 10 10 10 11 7 3 3 1 3 1 2 5 5 3 4 5 4 1 3 2 3 3 3 3 1 5 4 2 6 1 3 6 7 6 5 3 2 2 8 4 6 8
11 11 9 10 10 8 9 10 9 9 8 9 10 10 9 8 1 3 3 1 1 3 1 5 5 4 5 3 1 1 1 2 3 1 0 2 2 5 4 3 5 3 2 6 6 5 7 6 4 7 8 9 9 9
8 8 8 8 7 9 6 6 7 6 7 9 9 9 9 9 7 6 6 14 5 2 1 3 6 4 3 1 2 3 1 2 2 2 2 2 4 5 6 7 3 4 9 11 7 5 5 6 9 9 8 10 12 9
5 6 5 3 5 3 4 5 5 6 7 7 7 8 3 1 2 5 4 8 2 3 2 2 2 3 1 3 2 1 3 1 2 1 2 6 5 8 6 9 13 10 7 6 11 12 11 11 9 10 9 11 8 8
2 3 3 4 4 4 3 5 3 2 5 6 2 1 3 3 1 2 4 1 1 2 2 3 3 4 2 2 2 2 1 3 1 4 4 5 4 3 6 7 8 10 12 13 15 13 10 9 7 7 6 6 5 5
2 3 3 3 5 3 6 5 3 3 4 2 2 2 4 8 3 0 2 3 2 3 4 5 4 2 3 4 1 1 2 0 3 3 6 4 3 4 8 9 9 9 10 8 6 4 5 5 6 6 7 6 6 8
3 1 3 6 5 4 6 5 2 2 0 3 3 4 3 2 2 1 3 4 4 4 2 3 4 3 3 2 3 4 2 3 3 1 6 4 2 5 8 10 9 8 8 8 7 7 6 6 6 7 6 6 6 7
7 6 7 6 5 7 6 4 1 6 7 2 2 3 3 2 5 2 2 3 2 2 1 1 3 1 5 4 3 4 5 2 1 6 4 2 3 5 6 7 7 5 6 5 5 5 6 6 6 4 6 6 7 6
9 9 9 6 5 6 6 3 2 3 1 2 2 5 2 3 3 4 1 3 5 3 4 4 3 2 2 5 2 4 3 3 5 4 2 2 3 5 5 5 4 6 7 7 7 7 7 7 8 8 7 6 4 1
10 10 7 5 5 3 3 2 2 2 1 2 1 5 2 5 3 1 3 3 5 3 4 4 4 3 3 4 3 3 3 6 4 2 2 3 2 4 5 5 5 5 5 6 6 6 7 6 6 7 6 5 3 4
7 7 5 6 5 4 3 2 3 1 2 2 2 4 5 4 7 5 4 4 4 4 3 4 3 4 4 2 4 5 4 5 2 1 2 1 2 3 4 4 4 5 5 6 6 5 6 7 6 7 8 6 6 4
7 3 4 6 5 4 3 2 2 3 3 3 3 2 4 4 4 4 3 4 5 5 4 3 5 1 2 3 4 4 3 3 2 2 2 3 2 4 5 6 6 6 7 6 6 7 6 5 7 5 5 6 5 4
4 3 7 7 4 2 2 3 2 2 2 2 2 4 4 3 3 3 4 5 5 2 3 2 1 6 4 5 3 2 2 2 1 1 1 2 4 6 5 6 7 7 7 8 6 6 5 7 6 4 5 3 2 3
4 2 6 8 6 1 2 3 3 3 2 3 4 3 3 4 4 2 1 3 1 1 3 4 5 3 2 2 2 1 1 1 1 2 3 5 5 5 6 7 7 7 7 6 6 5 5 7 6 5 4 3 2 2
3 4 8 11 7 2 3 4 2 2 4 4 2 4 3 3 2 1 2 3 3 3 5 4 2 1 2 1 1 1 1 1 2 3 4 5 4 5 5 5 5 7 6 7 6 5 4 5 3 4 4 4 3 4
4 5 7 3 3 1 1 3 4 1 3 3 5 4 4 4 4 5 4 5 5 1 3 3 2 2 3 2 2 1 2 1 2 3 3 5 5 4 6 6 5 4 3 5 5 6 3 3 4 2 3 5 5 5
3 8 3 3 2 5 3 3 1 4 3 3 4 4 3 3 4 4 5 4 3 1 2 2 2 2 2 2 3 3 4 2 3 4 6 5 4 5 5 5 3 4 6 7 6 5 4 4 3 2 1 4 4 5
4 5 3 4 3 3 5 4 3 3 3 5 4 3 3 3 2 4 2 2 3 3 2 3 4 3 2 4 6 6 4 5 5 5 5 4 6 6 5 7 3 4 6 9 3 2 4 3 4 4 4 4 3 4
4 3 3 3 2 2 3 3 2 2 1 2 3 2 3 3 4 3 2 3 4 3 2 4 3 0 1 2 3 4 5 3 5 5 5 3 4 6 4 2 4 2 3 4 5 5 5 5 7 5 5 4 5 4
2 1 1 1 1 1 2 2 1 0 1 1 1 3 2 1 2 2 3 4 2 3 4 4 4 3 2 4 4 5 6 5 5 4 6 2 2 3 5 4 5 5 4 6 6 6 6 6 6 6 6 5 7 7
3 6 11 9 4 2 2 2 2 3 2 2 3 2 2 2 2 1 3 4 3 2 3 4 3 4 6 5 4 5 5 2 4 5 5 5 5 4 3 4 5 5 4 3 3 5 7 5 5 7 7 9 11 9
6 4 5 4 4 4 5 4 3 3 5 6 5 6 3 3 2 4 4 2 3 4 3 4 6 4 3 3 3 5 5 6 5 2 0 3 4 4 4 4 4 3 4 5 5 5 5 6 6 7 6 7 8 9
7 6 4 9 6 6 4 7 8 8 5 2 5 3 2 3 1 3 3 3 5 5 4 2 1 3 4 3 3 5 5 4 4 3 3 4 4 5 5 2 1 7 4 5 6 4 4 5 5 6 5 4 4 5
4 5 6 8 3 3 1 3 2 3 1 3 4 3 2 2 4 3 4 3 3 5 5 5 4 3 4 4 5 5 4 5 7 7 6 4 4 4 3 3 4 5 4 5 9 7 9 6 5 3 4 0 2 3
4 3 5 5 8 7 3 4 3 2 3 2 3 3 3 2 2 1 4 5 4 4 4 4 3 6 5 5 5 6 5 5 3 2 0 2 4 4 3 4 5 5 5 4 5 6 10 6 6 4 4 4 3 2
1 3 3 3 5 5 2 2 3 4 3 3 1 4 3 1 4 4 4 4 5 5 6 5 5 5 5 5 4 4 5 5 6 5 3 2 3 4 4 5 5 4 3 4 5 5 5 5 8 7 5 6 5 4
5 1 2 3 4 1 3 1 3 3 4 4 3 1 2 3 3 5 5 4 5 6 5 5 5 5 5 4 4 4 5 3 4 5 6 4 3 3 4 5 5 5 5 6 6 7 10 9 8 10 11 8 7 7
1 1 3 3 5 4 2 4 3 2 3 4 7 8 4 2 5 3 6 8 5 4 5 5 5 5 6 7 7 6 6 4 9 8 9 11 10 9 5 4 4 4 7 6 5 5 7 8 7 9 9 10 10 11
Wind_Direction
284 285 285 285 284 283 281 280 281 283 278 279 285 292 293 300 317 328 284 274 245 271 282 254 269 294 329 316 336 302 14 351 13 31 66 297 170 218 78 53 90 75 359 48 355 62 24 339 324 81 224 319 65 53
280 281 281 280 281 282 280 277 274 278 270 276 286 294 296 297 308 323 272 321 305 224 261 300 267 262 249 248 270 327 180 36 359 350 3 338 332 16 49 88 44 322 143 115 85 174 249 300 50 194 231 87 24 65
283 279 279 279 272 276 281 282 274 271 259 273 287 297 303 301 297 301 290 287 296 280 288 291 249 253 219 225 195 159 302 131 253 187 152 243 4 58 117 175 114 56 206 111 121 317 290 278 272 22 32 58 11 36
280 274 275 278 271 265 270 276 292 278 266 272 284 291 292 300 295 301 257 277 292 267 269 280 330 326 194 193 207 172 203 352 282 70 145 158 270 55 24 136 69 181 75 149 233 96 317 306 22 296 43 52 36 8
278 273 269 269 270 275 271 268 275 285 261 274 281 286 295 301 303 296 247 218 218 256 286 285 305 256 206 188 246 283 137 97 21 356 37 280 256 42 359 53 78 186 183 135 215 175 202 219 294 229 63 59 58 37
270 276 261 269 272 261 254 255 268 279 266 277 285 295 295 307 333 301 313 28 171 79 242 292 282 247 180 191 223 155 122 167 163 161 237 280 200 100 92 95 302 321 95 141 146 185 215 141 302 19 79 78 53 47
259 267 251 262 259 269 249 257 260 270 263 283 285 292 284 287 123 234 238 255 260 7 314 299 288 258 177 187 270 82 17 188 152 207 188 199 333 78 72 99 251 174 138 87 100 109 50 57 45 25 45 38 44 50
249 250 253 274 263 273 249 267 238 257 272 281 288 280 283 279 276 281 248 244 173 180 263 272 272 345 156 203 273 162 138 29 321 189 12 121 357 43 52 334 83 113 88 69 89 87 102 74 45 34 42 35 35 22
246 237 227 274 272 245 236 245 225 250 267 281 289 295 322 125 234 244 126 112 129 144 251 276 284 284 12 247 214 33 111 54 276 99 332 67 8 52 314 8 30 18 76 92 61 51 43 46 31 23 24 22 22 357
216 208 207 251 259 218 236 201 184 208 278 304 336 288 285 232 257 116 4 56 320 225 235 238 256 284 72 4 344 78 36 159 135 246 102 86 80 170 348 16 24 21 39 41 49 29 20 22 19 6 358 332 336 318
193 203 226 279 180 152 145 147 156 243 352 340 279 249 260 287 31 303 259 173 206 243 213 233 214 247 323 66 327 114 169 233 108 258 103 80 47 344 345 12 14 18 37 46 69 56 25 352 332 327 320 310 315 317
65 137 147 132 143 153 156 160 98 46 77 277 273 294 294 343 6 331 250 269 189 231 229 184 241 183 307 66 70 350 64 21 90 357 66 77 360 314 349 354 357 9 12 20 22 8 346 333 317 299 300 305 300 291
61 68 122 131 143 149 160 122 272 320 330 332 239 287 39 285 28 276 266 276 252 250 265 68 21 49 350 28 47 49 48 309 339 50 72 102 303 316 327 334 336 6 12 9 342 322 313 296 291 280 279 269 269 289
70 85 97 93 104 130 134 178 275 329 24 316 324 328 139 300 249 253 351 279 275 101 57 80 28 73 325 26 17 60 293 39 61 65 79 276 293 317 335 324 347 0 4 347 345 350 345 347 335 322 308 291 276 26
71 80 83 74 118 113 155 197 231 16 11 294 273 342 329 313 265 316 262 319 333 18 45 27 25 66 356 47 14 35 40 69 41 58 175 234 297 6 345 342 345 351 348 340 341 340 332 342 349 345 335 330 359 50
99 59 33 69 62 72 92 314 311 303 277 287 300 342 330 360 342 339 24 356 339 358 16 39 44 38 23 41 40 6 44 48 67 42 219 232 340 287 266 287 308 310 309 310 307 308 320 330 346 319 325 2 27 68
7 51 37 44 36 41 330 332 315 264 286 337 293 68 265 281 260 309 3 347 336 49 18 26 41 0 336 41 52 30 69 162 188 275 188 207 252 290 307 311 304 311 315 312 316 315 300 321 328 320 333 330 8 45
65 57 56 32 357 309 278 188 257 266 285 309 44 303 301 236 284 340 349 1 48 44 29 48 260 16 34 39 43 50 31 342 104 123 295 285 303 304 300 302 305 303 302 301 290 283 303 310 298 272 269 287 2 351
137 176 18 16 3 286 298 286 148 337 304 109 280 284 277 288 281 236 93 359 7 165 71 30 48 42 53 40 110 335 281 179 312 322 291 290 291 297 304 306 296 299 301 293 298 282 262 245 235 240 221 221 223 278
82 300 313 326 340 21 328 301 53 22 355 278 340 327 282 269 276 350 357 4 19 41 34 60 98 116 131 245 214 216 291 10 26 331 299 290 289 331 320 305 288 293 297 303 301 282 313 315 284 235 221 216 206 249
340 332 328 339 337 51 327 346 336 359 317 349 325 1 312 344 28 19 355 339 23 38 56 59 134 218 186 211 213 199 328 298 243 207 273 305 309 306 296 286 271 279 289 298 280 294 315 270 273 264 200 233 220 232
319 329 326 328 344 6 7 35 296 278 5 301 347 338 17 13 358 355 314 11 344 333 133 179 238 240 295 319 294 273 252 255 297 284 284 278 284 290 288 276 306 291 294 284 277 248 261 258 254 283 249 267 243 248
341 3 355 360 19 40 283 342 355 25 20 320 327 23 13 2 332 319 346 293 271 264 255 252 249 255 299 327 299 290 277 251 262 263 268 257 267 284 280 278 294 303 307 302 300 316 289 292 287 308 300 298 281 283
29 35 7 3 1 315 324 333 7 343 325 27 29 330 315 330 328 19 312 269 257 270 268 254 233 144 315 247 267 264 255 230 259 279 265 238 262 280 285 13 42 345 344 342 18 12 360 354 351 358 349 352 343 330
60 163 116 275 280 244 244 198 182 326 226 132 101 273 293 20 349 326 312 294 317 313 324 343 332 335 307 291 291 285 273 203 226 246 299 261 258 13 42 54 27 10 5 30 8 354 339 338 346 346 341 339 336 326
256 188 185 186 165 222 228 281 210 197 181 187 227 236 161 225 239 240 239 237 229 255 238 241 265 320 302 252 258 289 302 342 109 68 11 39 73 91 70 58 24 345 356 24 4 345 339 342 346 342 333 333 326 326
271 199 184 241 159 174 190 222 176 195 200 205 178 183 203 195 78 276 262 245 155 247 237 206 195 210 262 345 354 5 23 41 68 131 200 101 86 77 98 102 47 281 310 342 344 342 340 334 333 325 322 335 17 38
240 231 147 176 208 215 171 161 195 205 206 150 140 172 65 74 238 262 246 239 184 192 224 359 28 84 77 50 38 46 25 14 15 6 8 35 51 60 68 69 338 353 344 332 341 335 331 321 314 324 345 60 55 55
279 331 25 11 61 123 96 105 54 2 306 85 108 102 185 229 183 203 297 313 48 86 76 62 20 60 55 41 42 35 31 20 30 26 24 349 352 328 355 2 343 326 319 332 327 335 327 335 323 9 4 113 65 64
318 348 37 25 36 350 305 126 141 129 87 110 112 61 44 18 247 170 65 49 62 85 102 86 62 64 48 46 20 1 358 356 17 140 96 308 272 274 322 344 328 315 318 341 333 329 322 335 323 334 22 74 68 47
93 43 26 0 131 221 286 27 92 105 105 124 69 111 142 156 17 16 51 50 53 65 58 47 51 49 53 34 17 360 337 316 5 45 5 312 321 339 336 318 307 313 334 332 328 337 356 8 9 359 2 359 27 43
336 347 97 6 312 346 122 126 343 61 88 84 288 127 64 83 81 352 326 40 62 53 39 52 63 35 20 352 352 345 329 17 357 332 331 323 316 324 324 322 331 336 350 13 23 39 38 28 28 21 11 360 357 359
61 37 301 26 333 304 310 72 77 110 55 47 12 346 306 0 20 50 26 45 58 50 38 55 47 26 5 359 347 342 23 357 357 8 338 330 326 327 350 333 355 35 67 42 37 43 35 23 33 23 14 5 8 2